Flag for China Weather past 2 weeks in Zhengzhou, Henan, China

Now
37 °F

Sunny.


Feels Like: 28 °F
Forecast: 27 / 47 °F
Wind: 17 mph from Northwest

Location: Zhengzhou Airport

Current Time: Dec 21, 2014 at 10:54:06 AM

Latest Report: Dec 21, 2014 at 10:00 AM


Visibility: 10 mi

Pressure: 30.57 "Hg

Humidity: 14%

Dew point: -8 °F

Location of ZhengzhouLocation

Historic Weather in Zhengzhou — Graph

°F

Zhengzhou temperature yesterday

Maximum temperature yesterday: 37 °F (at 12:00 AM)
Minimum temperature yesterday: 32 °F (at 5:00 AM)
Average temperature yesterday: 35 °F

Past Weeks' High & Low Weather Summary

 TemperatureHumidityPressure
High55 °F (Dec 19, 12:00 PM)87% (Dec 10, 2:00 AM)30.66 "Hg (Dec 10, 2:00 AM)
Low23 °F (Dec 18, 7:00 AM)9% (Dec 19, 1:00 PM)30.18 "Hg (Dec 6, 3:00 PM)
Average39 °F34%30.41 "Hg
* Reported Dec 6 9:00 AM — Dec 21 9:00 AM, Zhengzhou, Weather by CustomWeather, © 2014

Note: Actual official high and low records may vary slightly from our data, if they occured in-between our weather recording intervals... More about our weather records

Advertising

Zhengzhou weather history for previous 24 hours

 ConditionsComfort  
Time TempWeatherWind HumidityBarometerVisibility
9:00 AM
Dec 21
34 °FSunny.13 mph18%30.57 "Hg10 mi
8:00 AM32 °FSunny.15 mph19%30.57 "Hg10 mi
7:00 AM32 °FClear.15 mph23%30.54 "Hg10 mi
6:00 AM32 °FClear.13 mph19%30.51 "Hg10 mi
5:00 AM32 °FClear.10 mph25%30.54 "Hg10 mi
4:00 AM34 °FClear.13 mph18%30.54 "Hg10 mi
3:00 AM36 °FClear.15 mph18%30.54 "Hg10 mi
2:00 AM36 °FClear.15 mph18%30.51 "Hg10 mi
1:00 AM37 °FClear.20 mph18%30.48 "Hg10 mi
12:00 AM36 °FClear.10 mph30%30.48 "Hg4 mi
11:00 PM
Dec 20
34 °FClear.3 mph29%30.48 "Hg4 mi
10:00 PM34 °FClear.3 mph29%30.48 "Hg4 mi
9:00 PM34 °FClear.1 mph25%30.48 "Hg4 mi
8:00 PM36 °FClear.3 mph23%30.48 "Hg5 mi
7:00 PM36 °FClear.1 mph23%30.45 "Hg5 mi
6:00 PM36 °FClear.1 mph23%30.45 "Hg5 mi
5:00 PM37 °FClear.3 mph20%30.42 "Hg5 mi
4:00 PM37 °FClear.3 mph22%30.42 "Hg5 mi
3:00 PM37 °FClear.1 mph20%30.39 "Hg5 mi
2:00 PM37 °FClear.3 mph22%30.39 "Hg5 mi
1:00 PM37 °FClear.8 mph22%30.42 "Hg5 mi
12:00 PM36 °FHaze.6 mph25%30.45 "Hg3 mi
11:00 AM34 °FHaze.3 mph29%30.48 "Hg3 mi
10:00 AM34 °FHaze.8 mph32%30.48 "Hg3 mi
Weather by CustomWeather, © 2014

See weather overviewHow to use our weather pages